Torna al catalogo

STARLINK-4164

AttivoComunicazioniVLEO
NORAD 53282·PAYLOAD·🇺🇸 United States

Lanciato Jul 24, 2022 da Cape Canaveral Space Force Station

Loading…

Prossimi Passaggi (prossime 24 ore)

TLE

AggiornatoSource: CelesTrak SupGP

Epoca: Sep 14, 2026, 21:11 UTC

1 53282C 22086AS  26257.88312500  .00044200  00000+0  13416-2 0  2570
2 53282  53.1596  40.1872 0001193  77.6594  11.7614 15.33518694    11

Traccia STARLINK-4164 in tempo reale con AllMySat

Download on the App Store